| time (UTC) | temp F | wind direction | speed knots | gust knots | rain 1hr in | rain 24hr in | rain mn in | humidity % | barometer mb |
| 20260502220055 | 64 | 0 | 0.9 | 3.5 | 0.00 | 0.00 | 0.00 | 36 | 1011.5 |
| 20260502214607 | 64 | 36 | 0.0 | 1.7 | 0.00 | 0.00 | 0.00 | 38 | 1011.4 |
| 20260502213100 | 65 | 90 | 0.9 | 3.5 | 0.00 | 0.00 | 0.00 | 37 | 1011.4 |
| 20260502211545 | 65 | 38 | 0.9 | 3.5 | 0.00 | 0.00 | 0.00 | 37 | 1011.5 |
| 20260502210048 | 65 | 248 | 1.7 | 3.5 | 0.00 | 0.00 | 0.00 | 35 | 1011.5 |
| 20260502204541 | 63 | 67 | 0.9 | 3.5 | 0.00 | 0.00 | 0.00 | 41 | 1011.4 |
| 20260502203109 | 61 | 90 | 0.9 | 3.5 | 0.00 | 0.00 | 0.00 | 40 | 1011.5 |
| 20260502201545 | 61 | 26 | 0.9 | 5.2 | 0.00 | 0.00 | 0.00 | 43 | 1011.6 |
| 20260502200050 | 61 | 109 | 0.9 | 2.6 | 0.00 | 0.00 | 0.00 | 43 | 1011.8 |
| 20260502194543 | 61 | 37 | 0.9 | 2.6 | 0.00 | 0.00 | 0.00 | 44 | 1011.8 |
| 20260502193050 | 61 | 46 | 0.9 | 6.1 | 0.00 | 0.00 | 0.00 | 44 | 1012.2 |
| 20260502191549 | 61 | 45 | 0.9 | 2.6 | 0.00 | 0.00 | 0.00 | 46 | 1012.3 |
| 20260502190046 | 60 | 15 | 0.0 | 4.3 | 0.00 | 0.00 | 0.00 | 49 | 1012.4 |
| 20260502184544 | 59 | 0 | 0.9 | 3.5 | 0.00 | 0.00 | 0.00 | 51 | 1012.6 |
| 20260502183049 | 58 | 0 | 0.9 | 3.5 | 0.00 | 0.00 | 0.00 | 51 | 1012.5 |
| 20260502181546 | 59 | 41 | 0.0 | 4.3 | 0.00 | 0.00 | 0.00 | 51 | 1012.6 |
| 20260502163105 | 58 | 321 | 0.9 | 7.0 | 0.00 | 0.00 | 0.00 | 58 | 1013.5 |
| 20260502161613 | 57 | 54 | 0.9 | 5.2 | 0.00 | 0.00 | 0.00 | 63 | 1013.9 |
| 20260502151549 | 55 | 0 | 0.0 | 0.9 | 0.00 | 0.00 | 0.00 | 73 | 1014.7 |
| 20260502130105 | 54 | 346 | 0.0 | 3.5 | 0.00 | 0.00 | 0.00 | 75 | 1013.3 |
| 20260502123112 | 54 | 0 | 0.0 | 1.7 | 0.00 | 0.00 | 0.00 | 74 | 1013.6 |
| 20260502121545 | 54 | 0 | 0.0 | 6.1 | 0.00 | 0.00 | 0.00 | 74 | 1012.5 |
| 20260502114550 | 54 | 0 | 0.0 | 4.3 | 0.00 | 0.00 | 0.00 | 74 | 1012.8 |
| 20260502113052 | 54 | 0 | 0.0 | 4.3 | 0.00 | 0.00 | 0.00 | 76 | 1012.7 |
| 20260502111545 | 54 | 0 | 0.0 | 2.6 | 0.00 | 0.00 | 0.00 | 76 | 1012.3 |
| 20260502110051 | 54 | 0 | 0.0 | 2.6 | 0.00 | 0.00 | 0.00 | 77 | 1012.1 |
| 20260502104550 | 54 | 30 | 0.0 | 3.5 | 0.00 | 0.00 | 0.00 | 78 | 1012.1 |
| 20260502103048 | 54 | 0 | 0.0 | 0.9 | 0.00 | 0.00 | 0.00 | 81 | 1011.8 |
| 20260502101548 | 54 | 36 | 0.0 | 3.5 | 0.00 | 0.00 | 0.00 | 82 | 1012.2 |
| 20260502080104 | 53 | 0 | 0.0 | 0.9 | 0.00 | 0.00 | 0.00 | 87 | 1012.6 |
| 20260502070057 | 52 | 0 | 0.0 | 0.0 | 0.00 | 0.00 | 0.00 | 89 | 1011.5 |
| 20260502064551 | 52 | 0 | 0.0 | 0.0 | 0.00 | 0.00 | 0.00 | 89 | 1011.5 |
| 20260502063045 | 52 | 0 | 0.0 | 0.0 | 0.00 | 0.00 | 0.00 | 88 | 1011.6 |
| 20260502061543 | 52 | 0 | 0.0 | 0.0 | 0.00 | 0.00 | 0.00 | 88 | 1011.9 |
| 20260502060051 | 52 | 0 | 0.0 | 0.0 | 0.00 | 0.00 | 0.00 | 88 | 1012.1 |
| 20260502054551 | 52 | 0 | 0.0 | 0.0 | 0.00 | 0.00 | 0.00 | 88 | 1012.3 |
| 20260502053053 | 52 | 0 | 0.0 | 0.0 | 0.00 | 0.00 | 0.00 | 88 | 1012.5 |
| 20260502051558 | 52 | 0 | 0.0 | 0.0 | 0.00 | 0.00 | 0.00 | 88 | 1012.5 |
| 20260502050046 | 52 | 0 | 0.0 | 0.0 | 0.00 | 0.00 | 0.00 | 87 | 1012.6 |
| 20260502044552 | 52 | 0 | 0.0 | 0.0 | 0.00 | 0.00 | 0.00 | 87 | 1012.7 |
| 20260502043044 | 52 | 0 | 0.0 | 0.0 | 0.00 | 0.00 | 0.00 | 86 | 1012.7 |
| 20260502041549 | 53 | 0 | 0.0 | 0.0 | 0.00 | 0.00 | 0.00 | 86 | 1012.8 |
| 20260502040049 | 53 | 0 | 0.0 | 0.0 | 0.00 | 0.00 | 0.00 | 86 | 1012.8 |
| 20260502034544 | 53 | 0 | 0.0 | 0.0 | 0.00 | 0.00 | 0.00 | 84 | 1012.9 |
| 20260502033042 | 53 | 0 | 0.0 | 0.0 | 0.00 | 0.00 | 0.00 | 84 | 1013.0 |
| 20260502031549 | 54 | 0 | 0.0 | 0.0 | 0.00 | 0.00 | 0.00 | 82 | 1013.0 |
| 20260502030050 | 54 | 0 | 0.0 | 0.0 | 0.00 | 0.00 | 0.00 | 82 | 1013.1 |
| 20260502024544 | 54 | 0 | 0.0 | 0.0 | 0.00 | 0.00 | 0.00 | 81 | 1013.2 |
| 20260502023050 | 55 | 0 | 0.0 | 0.0 | 0.00 | 0.00 | 0.00 | 81 | 1013.3 |
| 20260502021552 | 55 | 0 | 0.0 | 0.0 | 0.00 | 0.00 | 0.00 | 80 | 1013.3 |
| 20260502020039 | 55 | 0 | 0.0 | 0.0 | 0.00 | 0.00 | 0.00 | 79 | 1013.1 |
| 20260502014545 | 55 | 0 | 0.0 | 0.9 | 0.00 | 0.00 | 0.00 | 77 | 1013.0 |
| 20260502013045 | 55 | 0 | 0.0 | 0.0 | 0.00 | 0.00 | 0.00 | 76 | 1013.0 |
| 20260502011543 | 56 | 0 | 0.0 | 0.9 | 0.00 | 0.00 | 0.00 | 75 | 1013.1 |
| 20260502010048 | 56 | 0 | 0.0 | 0.9 | 0.00 | 0.00 | 0.00 | 74 | 1013.1 |
| 20260502004546 | 57 | 0 | 0.0 | 0.9 | 0.00 | 0.00 | 0.00 | 73 | 1012.6 |
| 20260502003049 | 57 | 221 | 0.0 | 0.9 | 0.00 | 0.00 | 0.00 | 72 | 1012.5 |
| 20260502001552 | 58 | 0 | 0.0 | 0.9 | 0.00 | 0.00 | 0.00 | 71 | 1012.0 |
| 20260502000057 | 58 | 216 | 0.0 | 1.7 | 0.00 | 0.00 | 0.00 | 69 | 1012.1 |
| 20260501234541 | 59 | 207 | 0.0 | 3.5 | 0.00 | 0.00 | 0.00 | 68 | 1011.8 |
| 20260501233046 | 60 | 333 | 0.0 | 1.7 | 0.00 | 0.00 | 0.00 | 66 | 1011.8 |
| 20260501231553 | 61 | 165 | 0.0 | 1.7 | 0.00 | 0.00 | 0.00 | 65 | 1011.9 |
| 20260501230043 | 62 | 0 | 0.9 | 3.5 | 0.00 | 0.00 | 0.00 | 63 | 1012.0 |
| 20260501224542 | 62 | 140 | 0.0 | 3.5 | 0.00 | 0.00 | 0.00 | 63 | 1012.1 |
| 20260501223040 | 62 | 153 | 0.0 | 4.3 | 0.00 | 0.00 | 0.00 | 62 | 1011.9 |
| 20260501221605 | 63 | 240 | 0.0 | 3.5 | 0.00 | 0.00 | 0.00 | 60 | 1012.0 |